Regional Weather Roundup
Issued by NWS Kansas City/Pleasant Hill, MO

Home | Current Version | Previous Version | Graphics & Text | Print | Product List | Glossary Off
Versions: 1 2 3 4 5 6 7 8 9 10 11 12 13 14 15 16 17 18 19 20 21 22 23 24 25 26 27 28 29 30 31 32 33 34 35 36 37 38 39 40 41 42 43 44 45 46 47 48 49 50

000
ASUS43 KEAX 250210
RWREAX

WEATHER ROUNDUP FOR EASTERN KANSAS AND NORTHWEST MISSOURI
NATIONAL WEATHER SERVICE KANSAS CITY/PLEASANT HILL MO
900 PM CDT FRI OCT 24 2014

KSZ040-057-103>105-MOZ028-029-037-043-250300-
...KANSAS CITY METROPOLITAN AREA...

CITY           SKY/WX    TMP DP  RH WIND       PRES   REMARKS
K.C. INTL      MOCLDY    66  61  84 SW7       29.97R
K.C. DOWNTOWN  CLEAR     71  61  70 SW6       29.96R
LEES SUMMIT    PTCLDY    68  61  78 SW10      29.98R
OLATHE - IXD   CLEAR     66  61  84 S10       29.98R
OLATHE - OJC   PTCLDY    67  62  84 SW9       29.97R
LAWRENCE       CLEAR     62  58  86 CALM      29.96R

$$

MOZ001>008-011>017-020>025-030>033-038>040-044>046-053-054-250300-
...NORTHERN AND CENTRAL MISSOURI...

CITY           SKY/WX    TMP DP  RH WIND       PRES   REMARKS
ST. JOSEPH     CLEAR     63  61  93 S5        29.95S
MOSBY          CLEAR     63  61  94 CALM      29.97R
WHITEMAN AFB   CLEAR     65  61  87 SW10      29.97R
CLINTON        CLEAR     68  63  83 SW7       30.00R HAZE
SEDALIA        CLEAR     69  61  75 SW13      29.99R
WARSAW         NOT AVBL
MARSHALL       PTCLDY    70  63  78 SW6       29.99R
CHILLICOTHE      N/A     61  58  90 CALM      29.96S
MOBERLY        CLEAR     66  57  72 SW7       29.97R
KIRKSVILLE     PTCLDY    63  60  90 CALM      29.96R

$$

MOZ041-047>049-056>058-063>065-088>090-097-250300-
...EASTERN AND SOUTHERN MISSOURI...

CITY           SKY/WX    TMP DP  RH WIND       PRES   REMARKS
ST. LOUIS INTL MOCLDY    67  49  52 S6        30.00S
SPIRIT OF STL  MOCLDY    59  51  75 CALM      29.98F
COLUMBIA       CLEAR     65  59  81 S8        29.98F
JEFFERSON CITY CLEAR     66  59  78 E5        29.98S
MEXICO         CLEAR     66  63  88 S9        29.96F
HANNIBAL       MOCLDY    64  57  77 S8        29.96R
ROLLA          PTCLDY    64  58  80 S10       30.01S
LEBANON        PTCLDY    64  59  82 S6        30.05S
OSAGE BEACH    PTCLDY    66  57  72 S6        30.01F
SPRINGFIELD    PTCLDY    63  59  87 S9        30.05R
BRANSON        CLEAR     64  59  82 SW3       30.08S
NEVADA         PTCLDY    64  59  82 S8        30.02S
JOPLIN         CLEAR     65  60  84 S10       30.04S
WEST PLAINS    MOCLDY    63  56  78 SW7       30.09R

$$

IAZ060-094-KSZ022-034>040-054-083-096-NEZ052-066-093-250300-
...KANSAS...SOUTHEAST NEBRASKA AND IOWA...

CITY           SKY/WX    TMP DP  RH WIND       PRES   REMARKS
TOPEKA         CLEAR     64  60  87 CALM      29.96R
MANHATTAN      CLEAR     68  62  81 SW5       29.96R
EMPORIA        CLEAR     65  61  87 S8        29.99R
CHANUTE        CLEAR     64  61  90 S8        30.01S
WICHITA        CLEAR     66  59  78 S6        30.01S
OMAHA          PTCLDY    60  56  86 CALM      29.97R
LINCOLN        CLEAR     57  53  86 N8        29.98R
FALLS CITY     CLEAR     67  61  81 CALM      29.95R
LAMONI         CLEAR     63  61  93 S3        29.95S
DES MOINES     MOCLDY    60  58  92 S3        29.95R FOG

$$




USA.gov is the U.S. government's official web portal to all federal, state and local government web resources and services.